STARLINK-2078 (47675 NORAD) Tracking and Keplerian Element Data
This shows tracking and keplerian element data for the satellite.
Feedback or suggestion? Click here.
Element | Value |
Catalog | 47675 |
Name | STARLINK-2078 |
Epoch Orbit | 235 |
Epoch Day | 57.16667824 |
Epoch Year | 2021 |
RAAN | 52.0417 |
Inclination | 53.0495 |
Eccentricity | 0.0001416 |
Argument of Perigee | 88.1295 |
Mean Anonmoly | 162.9988 |
Mean Motion | 15.85814877 |
Decay Rate | 0.00063902 |
L1 | 1 47675U 21012BH 21057.16667824 .00063902 00000-0 25741-3 0 9992 |
L2 | 2 47675 53.0495 52.0417 0001416 88.1295 162.9988 15.85814877 2358 |
Live tracking and technical data element details for STARLINK-2078 (NORAD 47675). STARLINK-2078 can be tracked NOW for your location showing map with azimuth and elevation plus other details from your city location.
Track the satellite on the map from your city or location and see movement details for azimuth, elevation, latitude, longitude, range, height, and movement on the map or in text.
IsCatalogInMostPopularTable: catalog: 47675, numindb: 1
Update: records affected: 1
GetName: 47675 STARLINK-2078
Hit Count: updated at: Fri, 26 Feb 2021 09:31:36 GMT